H1 CPF 2 NER 2024 4 28 9 119 01 glonass146 H2 2216101 9146 54377 2024 4 28 0 0 0 2024 5 1 23 45 0 900 1 1 0 0 0 1 H9 10 0 60428 0.00000 0 -7225473.602 10209807.225 22233638.210 10 0 60428 900.00000 0 -9902185.485 10246265.151 21156444.318 10 0 60428 1800.00000 0 -12411929.946 10468413.180 19668351.475 10 0 60428 2700.00000 0 -14694126.615 10846879.750 17798115.443 10 0 60428 3600.00000 0 -16696113.685 11342477.925 15581942.330 10 0 60428 4500.00000 0 -18375129.433 11907969.631 13062795.949 10 0 60428 5400.00000 0 -19699890.890 12490187.655 10289570.605 10 0 60428 6300.00000 0 -20651703.307 13032426.108 7316144.614 10 0 60428 7200.00000 0 -21225053.517 13476998.149 4200332.573 10 0 60428 8100.00000 0 -21427661.967 13767852.179 1002756.831 10 0 60428 9000.00000 0 -21279991.115 13853134.769 -2214339.409 10 0 60428 9900.00000 0 -20814231.065 13687590.412 -5388313.349 10 0 60428 10800.00000 0 -20072805.716 13234694.941 -8457353.267 10 0 60428 11700.00000 0 -19106463.273 12468430.636 -11361693.393 10 0 60428 12600.00000 0 -17972032.801 11374626.386 -14044787.970 10 0 60428 13500.00000 0 -16729942.745 9951804.837 -16454420.546 10 0 60428 14400.00000 0 -15441607.334 8211499.646 -18543726.035 10 0 60428 15300.00000 0 -14166792.190 6178028.587 -20272105.120 10 0 60428 16200.00000 0 -12961070.957 3887731.461 -21606013.081 10 0 60428 17100.00000 0 -11873480.444 1387704.380 -22519607.964 10 0 60428 18000.00000 0 -10944472.968 -1265916.771 -22995245.980 10 0 60428 18900.00000 0 -10204251.489 -4010052.112 -23023815.315 10 0 60428 19800.00000 0 -9671556.651 -6777065.525 -22604902.738 10 0 60428 20700.00000 0 -9352955.502 -9497345.123 -21746790.666 10 0 60428 21600.00000 0 -9242660.378 -12101969.463 -20466285.624 10 0 60428 22500.00000 0 -9322884.089 -14525349.211 -18788382.103 10 0 60428 23400.00000 0 -9564715.047 -16707735.185 -16745768.944 10 0 60428 24300.00000 0 -9929474.245 -18597489.500 -14378188.187 10 0 60428 25200.00000 0 -10370495.923 -20153026.530 -11731659.053 10 0 60428 26100.00000 0 -10835256.101 -21344344.123 -8857582.232 10 0 60428 27000.00000 0 -11267758.801 -22154082.825 -5811741.899 10 0 60428 27900.00000 0 -11611079.056 -22578070.282 -2653224.706 10 0 60428 28800.00000 0 -11809955.334 -22625329.452 556723.366 10 0 60428 29700.00000 0 -11813322.140 -22317551.678 3755880.242 10 0 60428 30600.00000 0 -11576676.011 -21688057.672 6882248.442 10 0 60428 31500.00000 0 -11064175.256 -20780290.879 9875250.181 10 0 60428 32400.00000 0 -10250385.041 -19645906.968 12676894.090 10 0 60428 33300.00000 0 -9121594.019 -18342539.644 15232891.531 10 0 60428 34200.00000 0 -7676646.685 -16931336.399 17493701.432 10 0 60428 35100.00000 0 -5927255.656 -15474367.088 19415484.104 10 0 60428 36000.00000 0 -3897779.570 -14032013.306 20960946.262 10 0 60428 36900.00000 0 -1624474.349 -12660447.183 22100061.502 10 0 60428 37800.00000 0 845752.741 -11409304.412 22810652.799 10 0 60428 38700.00000 0 3457036.340 -10319648.188 23078826.018 10 0 60428 39600.00000 0 6146625.127 -9422308.835 22899246.030 10 0 60428 40500.00000 0 8847248.684 -8736668.293 22275249.757 10 0 60428 41400.00000 0 11489682.553 -8269940.408 21218793.281 10 0 60428 42300.00000 0 14005406.331 -8016977.421 19750233.090 10 0 60428 43200.00000 0 16329245.385 -7960611.231 17897944.520 10 0 60428 44100.00000 0 18401886.921 -8072515.664 15697783.521 10 0 60428 45000.00000 0 20172165.724 -8314554.035 13192400.931 10 0 60428 45900.00000 0 21599024.032 -8640555.650 10430421.524 10 0 60428 46800.00000 0 22653063.156 -8998446.494 7465502.946 10 0 60428 47700.00000 0 23317621.254 -9332643.904 4355292.492 10 0 60428 48600.00000 0 23589331.442 -9586613.413 1160302.028 10 0 60428 49500.00000 0 23478136.339 -9705478.562 -2057276.578 10 0 60428 50400.00000 0 23006758.244 -9638571.857 -5234791.585 10 0 60428 51300.00000 0 22209647.376 -9341817.266 -8310362.161 10 0 60428 52200.00000 0 21131453.001 -8779841.671 -11224094.603 10 0 60428 53100.00000 0 19825082.702 -7927724.237 -13919258.983 10 0 60428 54000.00000 0 18349432.618 -6772308.184 -16343402.166 10 0 60428 54900.00000 0 16766885.415 -5313018.193 -18449374.685 10 0 60428 55800.00000 0 15140682.427 -3562147.943 -20196250.896 10 0 60428 56700.00000 0 13532281.403 -1544604.865 -21550124.379 10 0 60428 57600.00000 0 11998811.455 702877.729 -22484763.324 10 0 60428 58500.00000 0 10590732.244 3133028.420 -22982113.665 10 0 60428 59400.00000 0 9349795.278 5689771.715 -23032640.949 10 0 60428 60300.00000 0 8307392.025 8310336.080 -22635505.195 10 0 60428 61200.00000 0 7483356.889 10927648.224 -21798566.230 10 0 60428 62100.00000 0 6885273.743 13472914.169 -20538220.290 10 0 60428 63000.00000 0 6508313.346 15878280.080 -18879071.751 10 0 60428 63900.00000 0 6335606.755 18079462.672 -16853446.956 10 0 60428 64800.00000 0 6339137.298 20018240.501 -14500759.964 10 0 60428 65700.00000 0 6481112.139 21644703.307 -11866742.763 10 0 60428 66600.00000 0 6715754.417 22919166.761 -9002555.001 10 0 60428 67500.00000 0 6991439.531 23813673.984 -5963790.555 10 0 60428 68400.00000 0 7253084.872 24313022.357 -2809400.119 10 0 60428 69300.00000 0 7444691.805 24415273.940 399449.356 10 0 60428 70200.00000 0 7511932.501 24131729.235 3600556.429 10 0 60428 71100.00000 0 7404672.399 23486366.338 6731885.497 10 0 60428 72000.00000 0 7079321.996 22514769.874 9732762.613 10 0 60428 72900.00000 0 6500918.769 21262594.935 12545044.097 10 0 60428 73800.00000 0 5644851.405 19783630.602 15114235.796 10 0 60428 74700.00000 0 4498153.447 18137544.024 17390541.851 10 0 60428 75600.00000 0 3060311.270 16387399.015 19329823.403 10 0 60428 76500.00000 0 1343551.485 14597052.378 20894449.327 10 0 60428 77400.00000 0 -627405.647 12828536.001 22054023.150 10 0 60428 78300.00000 0 -2816118.222 11139533.258 22785972.574 10 0 60428 79200.00000 0 -5175689.847 9581054.232 23075990.506 10 0 60428 80100.00000 0 -7650481.234 8195406.145 22918319.017 10 0 60428 81000.00000 0 -10178197.060 7014543.182 22315870.441 10 0 60428 81900.00000 0 -12692263.235 6058864.332 21280182.618 10 0 60428 82800.00000 0 -15124397.302 5336509.421 19831208.187 10 0 60428 83700.00000 0 -17407266.340 4843182.926 17996940.885 10 0 60428 84600.00000 0 -19477122.472 4562513.198 15812884.785 10 0 60428 85500.00000 0 -21276306.432 4466932.313 13321375.569 10 0 60429 0.00000 0 -22755514.452 4519039.763 10570766.143 10 0 60429 900.00000 0 -23875733.922 4673392.663 7614490.111 10 0 60429 1800.00000 0 -24609764.082 4878646.568 4510024.628 10 0 60429 2700.00000 0 -24943259.783 5079956.022 1317767.895 10 0 60429 3600.00000 0 -24875251.596 5221532.292 -1900142.771 10 0 60429 4500.00000 0 -24418120.675 5249248.746 -5081049.888 10 0 60429 5400.00000 0 -23597028.977 5113182.012 -8163006.659 10 0 60429 6300.00000 0 -22448828.930 4769979.582 -11085994.505 10 0 60429 7200.00000 0 -21020498.880 4184951.919 -13793102.231 10 0 60429 8100.00000 0 -19367170.994 3333798.901 -16231642.719 10 0 60429 9000.00000 0 -17549835.484 2203896.201 -18354184.532 10 0 60429 9900.00000 0 -15632818.751 795086.117 -20119477.744 10 0 60429 10800.00000 0 -13681142.244 -880061.378 -21493255.835 10 0 60429 11700.00000 0 -11757873.508 -2796529.030 -22448898.257 10 0 60429 12600.00000 0 -9921580.765 -4917662.741 -22967941.278 10 0 60429 13500.00000 0 -8223997.459 -7196478.389 -23040427.918 10 0 60429 14400.00000 0 -6707993.845 -9577410.532 -22665091.078 10 0 60429 15300.00000 0 -5405939.414 -11998430.036 -21849367.201 10 0 60429 16200.00000 0 -4338523.156 -14393442.499 -20609241.053 10 0 60429 17100.00000 0 -3514079.233 -16694867.719 -18968925.385 10 0 60429 18000.00000 0 -2928444.363 -18836293.114 -16960382.263 10 0 60429 18900.00000 0 -2565350.913 -20755091.031 -14622695.792 10 0 60429 19800.00000 0 -2397337.305 -22394891.536 -12001308.596 10 0 60429 20700.00000 0 -2387135.807 -23707808.384 -9147137.070 10 0 60429 21600.00000 0 -2489477.924 -24656326.216 -6115582.556 10 0 60429 22500.00000 0 -2653240.309 -25214771.054 -2965457.563 10 0 60429 23400.00000 0 -2823839.984 -25370303.690 242152.212 10 0 60429 24300.00000 0 -2945777.398 -25123395.188 3445068.177 10 0 60429 25200.00000 0 -2965219.796 -24487765.509 6581218.789 10 0 60429 26100.00000 0 -2832515.853 -23489788.416 9589836.153 10 0 60429 27000.00000 0 -2504535.516 -22167388.008 12412626.478 10 0 60429 27900.00000 0 -1946736.412 -20568473.160 14994892.238 10 0 60429 28800.00000 0 -1134869.577 -18748975.148 17286584.864 10 0 60429 29700.00000 0 -56252.335 -16770570.107 19243268.262 10 0 60429 30600.00000 0 1289445.902 -14698180.742 20826975.223 10 0 60429 31500.00000 0 2889938.997 -12597360.735 22006940.700 10 0 60429 32400.00000 0 4720593.172 -10531669.960 22760198.355 10 0 60429 33300.00000 0 6745220.384 -8560148.930 23072029.052 10 0 60429 34200.00000 0 8917364.842 -6734996.809 22936252.679 10 0 60429 35100.00000 0 11182031.148 -5099549.003 22355357.298 10 0 60429 36000.00000 0 13477784.044 -3686638.030 21340462.534 10 0 60429 36900.00000 0 15739134.105 -2517405.738 19911116.933 10 0 60429 37800.00000 0 17899111.437 -1600616.330 18094932.112 10 0 60429 38700.00000 0 19891921.087 -932498.927 15927059.485 10 0 60429 39600.00000 0 21655569.836 -497126.392 13449518.497 10 0 60429 40500.00000 0 23134354.638 -267314.565 10710388.293 10 0 60429 41400.00000 0 24281108.123 -206004.067 7762877.715 10 0 60429 42300.00000 0 25059106.251 -268066.175 4664291.255 10 0 60429 43200.00000 0 25443557.065 -402455.997 1474911.093 10 0 60429 44100.00000 0 25422606.946 -554621.074 -1743182.634 10 0 60429 45000.00000 0 24997821.066 -669062.279 -4927329.519 10 0 60429 45900.00000 0 24184117.158 -691937.133 -8015519.702 10 0 60429 46800.00000 0 23009154.991 -573593.643 -10947612.623 10 0 60429 47700.00000 0 21512207.281 -270925.628 -13666518.614 10 0 60429 48600.00000 0 19742559.908 250551.779 -16119319.207 10 0 60429 49500.00000 0 17757509.351 1014995.736 -18258303.418 10 0 60429 50400.00000 0 15620042.253 2034971.728 -20041899.252 10 0 60429 51300.00000 0 13396295.318 3310686.327 -21435482.088 10 0 60429 52200.00000 0 11152902.628 4829749.672 -22412044.421 10 0 60429 53100.00000 0 8954341.826 6567478.109 -22952714.389 10 0 60429 54000.00000 0 6860390.140 8487724.511 -23047113.761 10 0 60429 54900.00000 0 4923796.072 10544201.618 -22693549.304 10 0 60429 55800.00000 0 3188263.070 12682243.057 -21899034.711 10 0 60429 56700.00000 0 1686828.017 14840928.479 -20679143.544 10 0 60429 57600.00000 0 440700.518 16955484.212 -19057696.799 10 0 60429 58500.00000 0 -541390.482 18959859.389 -17066291.727 10 0 60429 59400.00000 0 -1263317.514 20789370.353 -14743681.509 10 0 60429 60300.00000 0 -1741139.932 22383303.456 -12135018.040 10 0 60429 61200.00000 0 -2002173.142 23687368.109 -9290972.699 10 0 60429 62100.00000 0 -2083582.538 24655898.211 -6266752.143 10 0 60429 63000.00000 0 -2030562.789 25253710.825 -3121028.211 10 0 60429 63900.00000 0 -1894180.172 25457544.910 85197.425 10 0 60429 64800.00000 0 -1728969.669 25257020.581 3289772.003 10 0 60429 65700.00000 0 -1590388.635 24655079.499 6430591.180 10 0 60429 66600.00000 0 -1532234.626 23667888.285 9446796.306 10 0 60429 67500.00000 0 -1604136.346 22324209.350 12279946.662 10 0 60429 68400.00000 0 -1849223.454 20664265.404 14875144.468 10 0 60429 69300.00000 0 -2302073.457 18738144.849 17182091.435 10 0 60429 70200.00000 0 -2987022.276 16603814.173 19156057.058 10 0 60429 71100.00000 0 -3916910.005 14324819.465 20758740.634 10 0 60429 72000.00000 0 -5092315.258 11967771.988 21959010.892 10 0 60429 72900.00000 0 -6501311.399 9599721.403 22733509.462 10 0 60429 73800.00000 0 -8119756.332 7285524.876 23067106.819 10 0 60429 74700.00000 0 -9912105.521 5085320.454 22953201.861 10 0 60429 75600.00000 0 -11832716.229 3052208.857 22393859.086 10 0 60429 76500.00000 0 -13827590.513 1230239.347 21399780.040 10 0 60429 77400.00000 0 -15836486.109 -347216.957 19990108.737 10 0 60429 78300.00000 0 -17795308.683 -1658638.896 18192073.636 10 0 60429 79200.00000 0 -19638686.781 -2695023.442 16040471.867 10 0 60429 80100.00000 0 -21302622.532 -3460022.309 13577004.486 10 0 60429 81000.00000 0 -22727107.423 -3969541.302 10849474.533 10 0 60429 81900.00000 0 -23858593.218 -4250819.303 7910862.626 10 0 60429 82800.00000 0 -24652213.622 -4341025.890 4818297.613 10 0 60429 83700.00000 0 -25073662.303 -4285437.204 1631942.281 10 0 60429 84600.00000 0 -25100647.069 -4135267.866 -1586183.862 10 0 60429 85500.00000 0 -24723857.774 -3945251.728 -4773420.927 10 0 60430 0.00000 0 -23947406.198 -3771075.190 -7867699.125 10 0 60430 900.00000 0 -22788718.105 -3666773.256 -10808759.758 10 0 60430 1800.00000 0 -21277882.691 -3682200.483 -13539337.546 10 0 60430 2700.00000 0 -19456485.360 -3860685.168 -16006285.579 10 0 60430 3600.00000 0 -17375974.098 -4236967.783 -18161615.934 10 0 60430 4500.00000 0 -15095628.222 -4835511.935 -19963436.746 10 0 60430 5400.00000 0 -12680215.350 -5669260.145 -21376767.002 10 0 60430 6300.00000 0 -10197435.293 -6738887.580 -22374213.395 10 0 60430 7200.00000 0 -7715258.190 -8032585.540 -22936496.501 10 0 60430 8100.00000 0 -5299268.178 -9526383.959 -23052816.824 10 0 60430 9000.00000 0 -3010123.131 -11184999.403 -22721054.434 10 0 60430 9900.00000 0 -901235.714 -12963172.909 -21947799.229 10 0 60430 10800.00000 0 983228.748 -14807441.531 -20748212.121 10 0 60430 11700.00000 0 2609955.675 -16658269.429 -19145720.562 10 0 60430 12600.00000 0 3957620.889 -18452449.337 -17171554.939 10 0 60430 13500.00000 0 5017521.016 -20125674.155 -14864135.264 10 0 60430 14400.00000 0 5793670.486 -21615171.367 -12268320.314 10 0 60430 15300.00000 0 6302363.186 -22862290.419 -9434533.947 10 0 60430 16200.00000 0 6571219.164 -23814935.299 -6417785.601 10 0 60430 17100.00000 0 6637758.146 -24429741.042 -3276603.879 10 0 60430 18000.00000 0 6547561.230 -24673903.408 -71903.867 10 0 60430 18900.00000 0 6352099.233 -24526585.802 3134190.007 10 0 60430 19800.00000 0 6106319.847 -23979844.654 6279543.033 10 0 60430 20700.00000 0 5866095.764 -23039034.928 9303208.155 10 0 60430 21600.00000 0 5685641.481 -21722679.020 12146599.959 10 0 60430 22500.00000 0 5615007.616 -20061804.199 14754622.494 10 0 60430 23400.00000 0 5697758.228 -18098775.983 17076729.630 10 0 60430 24300.00000 0 5968928.924 -15885675.506 19067898.099 10 0 60430 25200.00000 0 6453351.746 -13482287.692 20689495.070 10 0 60430 26100.00000 0 7164417.669 -10953782.954 21910024.085 10 0 60430 27000.00000 0 8103329.353 -8368187.689 22705735.456 10 0 60430 27900.00000 0 9258876.582 -5793747.452 23061089.620 10 0 60430 28800.00000 0 10607745.213 -3296291.148 22969064.520 10 0 60430 29700.00000 0 12115348.364 -936704.614 22431300.799 10 0 60430 30600.00000 0 13737146.938 1231382.412 21458081.380 10 0 60430 31500.00000 0 15420406.024 3163600.477 20068144.948 10 0 60430 32400.00000 0 17106315.398 4826452.820 18288335.795 10 0 60430 33300.00000 0 18732386.763 6198469.112 16153095.577 10 0 60430 34200.00000 0 20235028.218 7270852.438 13703805.583 10 0 60430 35100.00000 0 21552188.485 8047592.500 10987991.179 10 0 60430 36000.00000 0 22625959.809 8545040.366 8058403.004 10 0 60430 36900.00000 0 23405029.562 8790962.791 4971992.314 10 0 60430 37800.00000 0 23846876.410 8823116.326 1788800.359 10 0 60430 38700.00000 0 23919617.313 8687402.016 -1429216.258 10 0 60430 39600.00000 0 23603426.135 8435679.582 -4619400.556 10 0 60430 40500.00000 0 22891462.732 8123334.752 -7719625.759 10 0 60430 41400.00000 0 21790272.191 7806704.152 -10669516.295 10 0 60430 42300.00000 0 20319636.539 7540468.321 -13411634.086 10 0 60430 43200.00000 0 18511884.662 7375124.771 -15892605.884 10 0 60430 44100.00000 0 16410689.264 7354649.477 -18064168.758 10 0 60430 45000.00000 0 14069401.570 7514446.885 -19884112.735 10 0 60430 45900.00000 0 11548993.906 7879675.989 -21317102.024 10 0 60430 46800.00000 0 8915696.733 8464023.700 -22335358.986 10 0 60430 47700.00000 0 6238429.259 9268977.524 -22919197.969 10 0 60430 48600.00000 0 3586131.044 10283628.158 -23057399.373 10 0 60430 49500.00000 0 1025105.703 11485010.162 -22747417.516 10 0 60430 50400.00000 0 -1383513.140 12838966.092 -21995419.185 10 0 60430 51300.00000 0 -3586069.043 14301497.499 -20816152.988 10 0 60430 52200.00000 0 -5538368.374 15820545.877 -19232652.818 10 0 60430 53100.00000 0 -7207263.294 17338128.675 -17275781.793 10 0 60430 54000.00000 0 -8571768.077 18792740.804 -14983625.959 10 0 60430 54900.00000 0 -9623664.277 20121921.033 -12400749.799 10 0 60430 55800.00000 0 -10367571.569 21264875.860 -9577328.137 10 0 60430 56700.00000 0 -10820483.455 22165051.205 -6568171.340 10 0 60430 57600.00000 0 -11010789.159 22772544.392 -3431662.644 10 0 60430 58500.00000 0 -10976824.411 23046255.661 -228628.190 10 0 60430 59400.00000 0 -10765013.322 22955689.261 2978838.530 10 0 60430 60300.00000 0 -10427680.492 22482328.853 6128575.218 10 0 60430 61200.00000 0 -10020626.119 21620529.797 9159549.304 10 0 60430 62100.00000 0 -9600566.520 20377890.835 12013033.656 10 0 60430 63000.00000 0 -9222547.871 18775089.425 14633737.162 10 0 60430 63900.00000 0 -8937441.996 16845187.084 16970868.835 10 0 60430 64800.00000 0 -8789629.371 14632432.979 18979115.526 10 0 60430 65700.00000 0 -8814966.696 12190614.647 20619515.012 10 0 60430 66600.00000 0 -9039124.501 9581023.365 21860208.161 10 0 60430 67500.00000 0 -9476364.871 6870117.415 22677056.185 10 0 60430 68400.00000 0 -10128811.215 4126978.900 23054111.342 10 0 60430 69300.00000 0 -10986241.626 1420668.319 22983932.046 10 0 60430 70200.00000 0 -12026415.784 -1182414.626 22467736.018 10 0 60430 71100.00000 0 -13215923.188 -3621055.586 21515387.943 10 0 60430 72000.00000 0 -14511518.797 -5841531.496 20145220.982 10 0 60430 72900.00000 0 -15861891.675 -7799602.684 18383694.480 10 0 60430 73800.00000 0 -17209793.911 -9462108.604 16264893.264 10 0 60430 74700.00000 0 -18494441.508 -10808100.797 13829876.972 10 0 60430 75600.00000 0 -19654087.052 -11829465.788 11125890.944 10 0 60430 76500.00000 0 -20628656.109 -12531011.821 8205453.102 10 0 60430 77400.00000 0 -21362335.975 -12930015.843 5125334.078 10 0 60430 78300.00000 0 -21806006.855 -13055250.012 1945450.347 10 0 60430 79200.00000 0 -21919411.733 -12945529.217 -1272307.775 10 0 60430 80100.00000 0 -21672971.919 -12647841.648 -4465289.656 10 0 60430 81000.00000 0 -21049170.167 -12215142.464 -7571314.728 10 0 60430 81900.00000 0 -20043441.536 -11703905.137 -10529894.515 10 0 60430 82800.00000 0 -18664533.244 -11171535.533 -13283421.188 10 0 60430 83700.00000 0 -16934317.421 -10673759.628 -15778298.303 10 0 60430 84600.00000 0 -14887064.076 -10262096.762 -17965990.798 10 0 60430 85500.00000 0 -12568204.603 -9981526.458 -19803973.099 10 0 60431 0.00000 0 -10032637.939 -9868448.277 -21256556.555 10 0 60431 900.00000 0 -7342649.092 -9949021.345 -22295580.936 10 0 60431 1800.00000 0 -4565530.717 -10237953.866 -22900955.087 10 0 60431 2700.00000 0 -1771002.606 -10737793.282 -23061039.563 10 0 60431 3600.00000 0 971460.074 -11438746.767 -22772862.615 10 0 60431 4500.00000 0 3595280.224 -12319038.965 -22042167.069 10 0 60431 5400.00000 0 6039304.001 -13345791.335 -20883287.942 10 0 60431 6300.00000 0 8250093.785 -14476385.591 -19318863.901 10 0 60431 7200.00000 0 10183894.879 -15660253.464 -17379388.802 10 0 60431 8100.00000 0 11808195.773 -16841017.280 -15102612.468 10 0 60431 9000.00000 0 13102818.804 -17958891.247 -12532802.570 10 0 60431 9900.00000 0 14060497.789 -18953242.573 -9719882.169 10 0 60431 10800.00000 0 14686920.500 -19765204.964 -6718459.658 10 0 60431 11700.00000 0 15000236.130 -20340234.833 -3586769.873 10 0 60431 12600.00000 0 15030050.166 -20630503.155 -385546.885 10 0 60431 13500.00000 0 14815950.260 -20597022.617 2823149.862 10 0 60431 14400.00000 0 14405626.213 -20211420.946 5977133.517 10 0 60431 15300.00000 0 13852663.935 -19457286.055 9015288.895 10 0 60431 16200.00000 0 13214106.640 -18331026.483 11878749.810 10 0 60431 17100.00000 0 12547885.983 -16842210.761 14512032.342 10 0 60431 18000.00000 0 11910231.114 -15013370.873 16864102.658 10 0 60431 18900.00000 0 11353164.333 -12879277.193 18889359.353 10 0 60431 19800.00000 0 10922188.312 -10485714.022 20548512.019 10 0 60431 20700.00000 0 10654261.775 -7887805.435 21809339.623 10 0 60431 21600.00000 0 10576148.524 -5147959.537 22647314.613 10 0 60431 22500.00000 0 10703209.242 -2333514.959 23046080.984 10 0 60431 23400.00000 0 11038687.208 485814.309 22997777.130 10 0 60431 24300.00000 0 11573518.647 3240591.223 22503197.000 10 0 60431 25200.00000 0 12286676.713 5864296.447 21571785.874 10 0 60431 26100.00000 0 13146035.965 8295849.001 20221469.956 10 0 60431 27000.00000 0 14109722.374 10481902.875 18478322.005 10 0 60431 27900.00000 0 15127893.490 12378824.576 16376068.202 10 0 60431 28800.00000 0 16144875.008 13954269.386 13955444.586 10 0 60431 29700.00000 0 17101564.589 15188290.552 11263414.411 10 0 60431 30600.00000 0 17938002.024 16073934.903 8352260.723 10 0 60431 31500.00000 0 18595997.138 16617299.806 5278571.294 10 0 60431 32400.00000 0 19021703.913 16837049.090 2102135.535 10 0 60431 33300.00000 0 19168031.001 16763408.543 -1115224.829 10 0 60431 34200.00000 0 18996785.376 16436683.819 -4310867.794 10 0 60431 35100.00000 0 18480456.982 15905364.155 -7422561.181 10 0 60431 36000.00000 0 17603567.377 15223893.061 -10389705.655 10 0 60431 36900.00000 0 16363523.954 14450201.556 -13154525.484 10 0 60431 37800.00000 0 14770942.504 13643109.583 -15663202.676 10 0 60431 38700.00000 0 12849423.547 12859706.838 -17866931.471 10 0 60431 39600.00000 0 10634791.293 12152824.820 -19722871.943 10 0 60431 40500.00000 0 8173826.824 11568707.780 -21194983.900 10 0 60431 41400.00000 0 5522548.494 11144981.334 -22254724.958 10 0 60431 42300.00000 0 2744111.532 10909004.547 -22881599.593 10 0 60431 43200.00000 0 -93585.426 10876674.642 -23063549.219 10 0 60431 44100.00000 0 -2920487.170 11051734.071 -22797176.528 10 0 60431 45000.00000 0 -5667054.597 11425608.318 -22087800.667 10 0 60431 45900.00000 0 -8266912.576 11977780.289 -20949343.042 10 0 60431 46800.00000 0 -10659363.716 12676684.627 -19404046.740 10 0 60431 47700.00000 0 -12791664.574 13481083.465 -17482035.669 10 0 60431 48600.00000 0 -14620971.014 14341865.041 -15220722.402 10 0 60431 49500.00000 0 -16115873.381 15204189.018 -12664076.503 10 0 60431 50400.00000 0 -17257459.238 16009887.927 -9861767.736 10 0 60431 51300.00000 0 -18039861.165 16700023.503 -6868200.770 10 0 60431 52200.00000 0 -18470268.716 17217490.463 -3741460.129 10 0 60431 53100.00000 0 -18568405.574 17509558.172 -542185.769 10 0 60431 54000.00000 0 -18365495.304 17530243.309 2667599.112 10 0 60431 54900.00000 0 -17902760.479 17242413.972 5825685.448 10 0 60431 55800.00000 0 -17229519.041 16619536.703 8870877.898 10 0 60431 56700.00000 0 -16400958.489 15646992.981 11744173.791 10 0 60431 57600.00000 0 -15475681.632 14322909.590 14389899.061 10 0 60431 58500.00000 0 -14513126.986 12658467.444 16756779.707 10 0 60431 59400.00000 0 -13570971.875 10677675.086 18798928.701 10 0 60431 60300.00000 0 -12702626.846 8416615.152 20476729.952 10 0 60431 61200.00000 0 -11954926.089 5922193.785 21757602.835 10 0 60431 62100.00000 0 -11366110.298 3250443.440 22616633.055 10 0 60431 63000.00000 0 -10964186.339 464447.870 23037058.016 10 0 60431 63900.00000 0 -10765732.425 -2368026.315 23010597.363 10 0 60431 64800.00000 0 -10775199.210 -5177094.930 22537622.090 10 0 60431 65700.00000 0 -10984736.627 -7893413.460 21627158.406 10 0 60431 66600.00000 0 -11374554.578 -10450817.215 20296725.397 10 0 60431 67500.00000 0 -11913803.319 -12788835.732 18572008.566 10 0 60431 68400.00000 0 -12561937.566 -14854977.447 16486374.300 10 0 60431 69300.00000 0 -13270507.935 -16606689.759 14080233.436 10 0 60431 70200.00000 0 -13985304.971 -18012912.689 11400265.150 10 0 60431 71100.00000 0 -14648765.770 -19055161.007 8498515.292 10 0 60431 72000.00000 0 -15202541.569 -19728089.173 5431386.178 10 0 60431 72900.00000 0 -15590117.304 -20039515.180 2258537.361 10 0 60431 73800.00000 0 -15759371.439 -20009902.225 -958280.981 10 0 60431 74700.00000 0 -15664966.461 -19671320.241 -4156438.539 10 0 60431 75600.00000 0 -15270467.351 -19065931.577 -7273654.687 10 0 60431 76500.00000 0 -14550096.754 -18244065.580 -10249222.436 10 0 60431 77400.00000 0 -13490051.039 -17261964.464 -13025201.353 10 0 60431 78300.00000 0 -12089320.205 -16179296.918 -15547555.028 10 0 60431 79200.00000 0 -10359975.832 -15056545.707 -17767209.963 10 0 60431 80100.00000 0 -8326914.060 -13952380.743 -19641014.561 10 0 60431 81000.00000 0 -6027063.790 -12921129.309 -21132579.282 10 0 60431 81900.00000 0 -3508092.927 -12010450.679 -22212981.672 10 0 60431 82800.00000 0 -826666.719 -11259313.195 -22861322.980 10 0 60431 83700.00000 0 1953669.166 -10696358.690 -23065126.197 10 0 60431 84600.00000 0 4764892.583 -10338722.339 -22820568.630 10 0 60431 85500.00000 0 7537095.906 -10191356.611 -22132545.405 99